LIDE (64869 NORAD) Tracking and Keplerian Element Data

This shows tracking and keplerian element data for the satellite.

Feedback or suggestion? Click here.




ElementValue
Catalog64869
NameLIDE
Epoch Orbit2227
Epoch Day354.13617808
Epoch Year2025
RAAN56.9616
Inclination97.6967
Eccentricity0.0007058
Argument of Perigee106.572
Mean Anonmoly253.6276
Mean Motion14.93020977
Decay Rate2.873E-05
L11 64869U 25154A 25354.13617808 .00002873 00000+0 28150-3 0 9991
L22 64869 97.6967 56.9616 0007058 106.5720 253.6276 14.93020977 22279



Live tracking and technical data element details for LIDE (NORAD 64869). LIDE can be tracked NOW for your location showing map with azimuth and elevation plus other details from your city location.







IsCatalogInMostPopularTable: catalog: 64869, numindb: 4
Update: records affected: 1



GetName: 64869 LIDE

Hit Count: updated at: Tue, 21 Apr 2026 20:45:39 GMT